Weather History for Denton, TX

Change the Weather History Date:

Sunday, February 10, 2013

  Actual Average Record
Temperature  
Mean Temperature 55 °F -  
Max Temperature 64 °F 56 °F 79 °F (2000)
Min Temperature 41 °F 35 °F 10 °F (2011)
Degree Days  
Heating Degree Days 10    
Growing Degree Days 5 (Base 50)    
Moisture  
Dew Point 44 °F    
Average Humidity 68    
Maximum Humidity 100    
Minimum Humidity 22    
Precipitation  
Precipitation 1.17 in - - ()
Sea Level Pressure  
Sea Level Pressure 29.79 in    
Wind  
Wind Speed 13 mph (WSW)    
Max Wind Speed 28 mph    
Max Gust Speed 36 mph    
Visibility 7 miles    
Events Rain , Thunderstorm    
Averages and records for this station are not official NWS values.
T = Trace of Precipitation, MM = Missing Value Source: NWS Daily Summary

Daily Weather History Graph

Daily Weather History Graph

Search for Another Location

Airport:

Trip Planner

Search our weather history database for the weather conditions in past years. The results will help you decide how hot, cold, wet, or windy it might be!

Date:

Astronomy

Feb. 10, 2013 Rise Set
Actual Time 7:16 AM CST 6:09 PM CST
Civil Twilight 6:51 AM CST 6:35 PM CST
Nautical Twilight 6:22 AM CST 7:04 PM CST
Astronomical Twilight 5:53 AM CST 7:33 PM CST
Moon 7:11 AM CST (2/10) 6:56 PM CST (2/10)
Length of Visible Light 11h 43m
Length of Day
10h 52m
New Moon, 0% of the Moon is Illuminated
Feb 10
New Moon
Feb 17
First Quarter
Feb 25
Full
Mar 4
Last Quarter
Mar 11
New

Hourly Weather History & Observations

Time (CST) Temp. Windchill Dew Point Humidity Pressure Visibility Wind Dir Wind Speed Gust Speed Precip Events Conditions
12:13 AM 57.2 °F - 55.4 °F 94% 29.71 in 2.0 mi SSE 19.6 mph - N/A   Overcast
12:53 AM 59.0 °F - 57.9 °F 96% 29.66 in 2.5 mi SSE 19.6 mph 27.6 mph N/A   Overcast
1:08 AM 59.0 °F - 57.2 °F 94% 29.66 in 3.0 mi SSE 18.4 mph - N/A   Overcast
1:32 AM 60.8 °F - 59.0 °F 94% 29.69 in 3.0 mi SSW 9.2 mph - N/A Thunderstorm Overcast
1:47 AM 60.8 °F - 59.0 °F 94% 29.69 in 3.0 mi South 9.2 mph - N/A Thunderstorm Overcast
1:53 AM 60.1 °F - 59.0 °F 96% 29.67 in 2.5 mi South 5.8 mph - 0.00 in Rain , Thunderstorm Light Thunderstorms and Rain
2:15 AM 59.0 °F - 57.2 °F 94% 29.71 in 1.2 mi WNW 27.6 mph 35.7 mph 0.17 in Rain , Thunderstorm Heavy Thunderstorms and Rain
2:23 AM 57.2 °F - 55.4 °F 94% 29.72 in 0.8 mi West 13.8 mph 33.4 mph 0.55 in Rain , Thunderstorm Heavy Thunderstorms and Rain
2:32 AM 57.2 °F - 57.2 °F 100% 29.71 in 1.0 mi SW 13.8 mph 18.4 mph 0.85 in Rain , Thunderstorm Heavy Thunderstorms and Rain
2:46 AM 57.2 °F - 57.2 °F 100% 29.71 in 2.0 mi West 8.1 mph - 1.07 in Rain , Thunderstorm Heavy Thunderstorms and Rain
2:51 AM 57.2 °F - 57.2 °F 100% 29.70 in 3.0 mi West 6.9 mph - 1.08 in Rain , Thunderstorm Thunderstorms and Rain
2:53 AM 57.0 °F - 55.9 °F 96% 29.69 in 4.0 mi WSW 6.9 mph - 1.09 in Rain , Thunderstorm Thunderstorms and Rain
3:02 AM 57.2 °F - 57.2 °F 100% 29.70 in 5.0 mi SSW 8.1 mph - 0.03 in Rain , Thunderstorm Thunderstorms and Rain
3:24 AM 59.0 °F - 57.2 °F 94% 29.71 in 9.0 mi WSW 13.8 mph 20.7 mph 0.08 in Rain , Thunderstorm Light Thunderstorms and Rain
3:33 AM 59.0 °F - 57.2 °F 94% 29.70 in 10.0 mi West 13.8 mph - 0.08 in Rain , Thunderstorm Light Thunderstorms and Rain
3:42 AM 59.0 °F - 55.4 °F 88% 29.72 in 10.0 mi West 13.8 mph - 0.08 in   Scattered Clouds
3:53 AM 59.0 °F - 54.0 °F 83% 29.73 in 10.0 mi West 11.5 mph - 0.08 in   Partly Cloudy
4:53 AM 55.9 °F - 46.9 °F 72% 29.76 in 10.0 mi WNW 6.9 mph - N/A   Mostly Cloudy
5:53 AM 52.0 °F - 39.9 °F 63% 29.79 in 10.0 mi Calm Calm - N/A   Overcast
6:53 AM 51.1 °F - 35.1 °F 54% 29.80 in 10.0 mi WNW 9.2 mph - N/A   Mostly Cloudy
7:53 AM 50.0 °F - 34.0 °F 54% 29.81 in 10.0 mi West 8.1 mph - N/A   Clear
8:53 AM 52.0 °F - 33.1 °F 49% 29.85 in 10.0 mi West 9.2 mph - N/A   Clear
9:53 AM 54.0 °F - 33.1 °F 45% 29.85 in 10.0 mi West 15.0 mph - N/A   Clear
10:53 AM 57.9 °F - 30.9 °F 36% 29.85 in 10.0 mi West 18.4 mph 23.0 mph N/A   Clear
11:53 AM 57.9 °F - 28.0 °F 32% 29.86 in 10.0 mi West 16.1 mph - N/A   Clear
12:53 PM 61.0 °F - 30.0 °F 31% 29.83 in 10.0 mi West 11.5 mph - N/A   Clear
1:53 PM 62.1 °F - 30.0 °F 30% 29.81 in 10.0 mi West 13.8 mph - N/A   Clear
2:53 PM 64.0 °F - 28.9 °F 27% 29.81 in 10.0 mi WNW 15.0 mph 20.7 mph N/A   Clear
3:53 PM 64.0 °F - 24.1 °F 22% 29.82 in 10.0 mi West 15.0 mph - N/A   Clear
4:53 PM 64.0 °F - 26.1 °F 24% 29.85 in 10.0 mi West 5.8 mph - N/A   Clear
5:53 PM 63.0 °F - 28.0 °F 27% 29.87 in 10.0 mi Calm Calm - N/A   Clear
6:53 PM 57.9 °F - 28.9 °F 33% 29.90 in 10.0 mi SW 4.6 mph - N/A   Clear
7:53 PM 52.0 °F - 36.0 °F 54% 29.95 in 10.0 mi North 3.5 mph - N/A   Clear
8:53 PM 46.0 °F 43.1 °F 35.1 °F 66% 29.97 in 10.0 mi NNW 5.8 mph - N/A   Clear
9:53 PM 48.0 °F - 30.9 °F 52% 29.98 in 10.0 mi North - - N/A   Clear
10:53 PM 48.9 °F - 28.9 °F 46% 30.01 in 10.0 mi Calm Calm - N/A   Clear
11:53 PM 41.0 °F - 35.1 °F 79% 30.03 in 10.0 mi Calm Calm - N/A   Clear